TimeEDT,TemperatureF,Dew PointF,Humidity,Sea Level PressureIn,VisibilityMPH,Wind Direction,Wind SpeedMPH,Gust SpeedMPH,PrecipitationIn,Events,Conditions,WindDirDegrees,DateUTC
12:15 AM,62.6,62.6,100,30.09,10.0,Calm,Calm,-,N/A,,Clear,0,2012-10-25 04:15:00
12:55 AM,59.0,59.0,100,30.09,7.0,Calm,Calm,-,N/A,,Clear,0,2012-10-25 04:55:00
1:15 AM,60.8,60.8,100,30.08,7.0,Calm,Calm,-,N/A,,Clear,0,2012-10-25 05:15:00
1:35 AM,59.0,59.0,100,30.08,5.0,Calm,Calm,-,N/A,,Clear,0,2012-10-25 05:35:00
1:55 AM,59.0,59.0,100,30.08,7.0,Calm,Calm,-,N/A,,Clear,0,2012-10-25 05:55:00
2:15 AM,60.8,60.8,100,30.07,7.0,Calm,Calm,-,N/A,,Clear,0,2012-10-25 06:15:00
2:35 AM,62.6,62.6,100,30.07,10.0,Calm,Calm,-,N/A,,Clear,0,2012-10-25 06:35:00
2:55 AM,60.8,60.8,100,30.06,5.0,Calm,Calm,-,N/A,,Clear,0,2012-10-25 06:55:00
3:15 AM,60.8,60.8,100,30.06,1.5,Calm,Calm,-,N/A,,Mist,0,2012-10-25 07:15:00
3:35 AM,62.6,62.6,100,30.05,10.0,Calm,Calm,-,N/A,,Clear,0,2012-10-25 07:35:00
3:55 AM,62.6,62.6,100,30.05,7.0,Calm,Calm,-,N/A,,Clear,0,2012-10-25 07:55:00
4:15 AM,62.6,62.6,100,30.05,7.0,Calm,Calm,-,N/A,,Clear,0,2012-10-25 08:15:00
4:35 AM,60.8,60.8,100,30.05,2.0,Calm,Calm,-,N/A,,Clear,0,2012-10-25 08:35:00
4:55 AM,60.8,60.8,100,30.05,1.2,Calm,Calm,-,N/A,,Mist,0,2012-10-25 08:55:00
5:15 AM,60.8,60.8,100,30.05,0.2,Calm,Calm,-,N/A,Fog,Fog,0,2012-10-25 09:15:00
5:35 AM,59.0,59.0,100,30.05,0.2,Calm,Calm,-,N/A,Fog,Fog,0,2012-10-25 09:35:00
5:55 AM,59.0,59.0,100,30.05,3.0,Calm,Calm,-,N/A,,Scattered Clouds,0,2012-10-25 09:55:00
6:15 AM,59.0,59.0,100,30.06,0.2,Calm,Calm,-,N/A,Fog,Fog,0,2012-10-25 10:15:00
6:35 AM,57.2,57.2,100,30.06,0.2,Calm,Calm,-,N/A,Fog,Fog,0,2012-10-25 10:35:00
6:55 AM,59.0,59.0,100,30.06,10.0,Calm,Calm,-,N/A,,Scattered Clouds,0,2012-10-25 10:55:00
7:15 AM,59.0,59.0,100,30.06,4.0,Calm,Calm,-,N/A,,Scattered Clouds,0,2012-10-25 11:15:00
7:35 AM,57.2,57.2,100,30.06,10.0,Calm,Calm,-,N/A,,Scattered Clouds,0,2012-10-25 11:35:00
7:55 AM,55.4,55.4,100,30.07,1.8,Calm,Calm,-,N/A,,Scattered Clouds,0,2012-10-25 11:55:00
8:15 AM,59.0,59.0,100,30.07,7.0,Calm,Calm,-,N/A,,Clear,0,2012-10-25 12:15:00
8:35 AM,60.8,60.8,100,30.07,4.0,Calm,Calm,-,N/A,,Clear,0,2012-10-25 12:35:00
9:15 AM,68.0,68.0,100,30.08,10.0,ENE,4.6,-,N/A,,Clear,70,2012-10-25 13:15:00
9:35 AM,71.6,68.0,88,30.08,10.0,East,5.8,-,N/A,,Clear,80,2012-10-25 13:35:00
9:55 AM,71.6,68.0,88,30.08,10.0,East,5.8,-,N/A,,Clear,80,2012-10-25 13:55:00
10:15 AM,73.4,64.4,73,30.08,10.0,East,5.8,-,N/A,,Clear,80,2012-10-25 14:15:00
10:35 AM,75.2,64.4,69,30.08,10.0,East,8.1,-,N/A,,Clear,80,2012-10-25 14:35:00
10:55 AM,78.8,64.4,61,30.08,10.0,East,6.9,-,N/A,,Clear,80,2012-10-25 14:55:00
11:15 AM,78.8,64.4,61,30.07,10.0,East,9.2,-,N/A,,Scattered Clouds,90,2012-10-25 15:15:00
11:35 AM,78.8,64.4,61,30.07,10.0,East,9.2,-,N/A,,Scattered Clouds,80,2012-10-25 15:35:00
11:55 AM,80.6,64.4,58,30.06,10.0,ESE,8.1,-,N/A,,Mostly Cloudy,110,2012-10-25 15:55:00
12:15 PM,80.6,62.6,54,30.06,10.0,East,9.2,-,N/A,,Overcast,100,2012-10-25 16:15:00
12:35 PM,80.6,62.6,54,30.05,10.0,East,11.5,17.3,N/A,,Overcast,100,2012-10-25 16:35:00
12:55 PM,80.6,62.6,54,30.04,10.0,East,10.4,-,N/A,,Mostly Cloudy,100,2012-10-25 16:55:00
1:15 PM,80.6,64.4,58,30.04,10.0,East,8.1,-,N/A,,Overcast,100,2012-10-25 17:15:00
1:55 PM,80.6,64.4,58,30.03,10.0,ESE,8.1,-,N/A,,Overcast,110,2012-10-25 17:55:00
2:15 PM,84.2,64.4,51,30.02,10.0,ESE,11.5,18.4,N/A,,Overcast,110,2012-10-25 18:15:00
2:35 PM,84.2,62.6,48,30.02,10.0,East,8.1,18.4,N/A,,Mostly Cloudy,100,2012-10-25 18:35:00
2:55 PM,82.4,62.6,51,30.01,10.0,ESE,9.2,17.3,N/A,,Scattered Clouds,110,2012-10-25 18:55:00
3:15 PM,82.4,62.6,51,30.01,10.0,East,11.5,19.6,N/A,,Mostly Cloudy,90,2012-10-25 19:15:00
3:35 PM,84.2,64.4,51,30.01,10.0,East,10.4,-,N/A,,Mostly Cloudy,100,2012-10-25 19:35:00
3:55 PM,82.4,62.6,51,30.00,10.0,ESE,6.9,18.4,N/A,,Scattered Clouds,110,2012-10-25 19:55:00
4:15 PM,80.6,62.6,54,30.00,10.0,East,13.8,23.0,N/A,,Scattered Clouds,100,2012-10-25 20:15:00
4:35 PM,80.6,62.6,54,30.00,10.0,ESE,10.4,-,N/A,,Scattered Clouds,110,2012-10-25 20:35:00
4:55 PM,80.6,62.6,54,30.00,10.0,ESE,10.4,19.6,N/A,,Clear,110,2012-10-25 20:55:00
5:15 PM,80.6,62.6,54,30.00,10.0,ESE,12.7,18.4,N/A,,Clear,110,2012-10-25 21:15:00
5:35 PM,80.6,62.6,54,30.01,10.0,East,8.1,16.1,N/A,,Clear,100,2012-10-25 21:35:00
5:55 PM,78.8,62.6,57,30.01,10.0,East,10.4,17.3,N/A,,Clear,100,2012-10-25 21:55:00
6:15 PM,78.8,62.6,57,30.02,10.0,ESE,5.8,-,N/A,,Clear,110,2012-10-25 22:15:00
6:55 PM,77.0,64.4,65,30.02,10.0,East,4.6,-,N/A,,Clear,100,2012-10-25 22:55:00
7:15 PM,75.2,64.4,69,30.03,10.0,East,6.9,-,N/A,,Clear,100,2012-10-25 23:15:00
7:35 PM,73.4,64.4,73,30.04,10.0,East,4.6,-,N/A,,Clear,100,2012-10-25 23:35:00
7:55 PM,73.4,64.4,73,30.04,10.0,East,4.6,-,N/A,,Clear,90,2012-10-25 23:55:00
8:15 PM,73.4,64.4,73,30.04,10.0,East,4.6,-,N/A,,Clear,90,2012-10-26 00:15:00
8:35 PM,73.4,64.4,73,30.03,10.0,East,4.6,-,N/A,,Clear,90,2012-10-26 00:35:00
9:15 PM,71.6,64.4,78,30.03,10.0,East,5.8,-,N/A,,Clear,80,2012-10-26 01:15:00
9:35 PM,71.6,64.4,78,30.03,10.0,East,10.4,-,N/A,,Clear,90,2012-10-26 01:35:00
9:55 PM,71.6,64.4,78,30.03,10.0,East,8.1,-,N/A,,Clear,90,2012-10-26 01:55:00
10:15 PM,71.6,64.4,78,30.03,10.0,ENE,6.9,-,N/A,,Clear,70,2012-10-26 02:15:00
10:35 PM,71.6,64.4,78,30.03,10.0,East,8.1,-,N/A,,Clear,80,2012-10-26 02:35:00
11:15 PM,71.6,64.4,78,30.02,10.0,ENE,3.5,-,N/A,,Overcast,70,2012-10-26 03:15:00
11:35 PM,71.6,64.4,78,30.02,10.0,ENE,4.6,-,N/A,,Overcast,70,2012-10-26 03:35:00
11:55 PM,71.6,62.6,73,30.01,10.0,ENE,3.5,-,N/A,,Scattered Clouds,70,2012-10-26 03:55:00